AS855 Weather Reports


time (UTC)temp
C
wind
direction
speed
KPH
gust
KPH
rain 1hr
cm
rain 24hr
cm
rain mn
cm
humidity
%
barometer
mb
20260906234556 24 248 6.4 14.5 0.00 0.00 0.00 38 1016.6
20260906233516 24 270 14.5 25.7 0.00 0.00 0.00 38 1016.4
20260906232518 25 248 19.3 35.4 0.00 0.00 0.00 37 1016.6
20260906231516 25 225 9.7 20.9 0.00 0.00 0.00 35 1017.4
20260906230556 25 293 6.4 16.1 0.00 0.00 0.00 35 1017.0
20260906225516 25 225 6.4 17.7 0.00 0.00 0.00 34 1016.8
20260906224516 25 248 14.5 22.5 0.00 0.00 0.00 34 1017.0
20260906223518 25 225 4.8 12.9 0.00 0.00 0.00 35 1017.4
20260906222516 25 68 3.2 4.8 0.00 0.00 0.00 34 1017.6
20260906221516 25 23 3.2 6.4 0.00 0.00 0.00 34 1017.4
20260906220516 25 45 6.4 9.7 0.00 0.00 0.00 34 1017.2
20260906215538 25 90 6.4 17.7 0.00 0.00 0.00 32 1017.2
20260906214516 26 0.0 4.8 0.00 0.00 0.00 32 1017.2
20260906213516 26 68 6.4 16.1 0.00 0.00 0.00 30 1017.0
20260906212516 26 338 6.4 12.9 0.00 0.00 0.00 30 1016.9
20260906211522 26 225 6.4 17.7 0.00 0.00 0.00 29 1017.4
20260906210516 26 270 4.8 14.5 0.00 0.00 0.00 30 1017.3
20260906205516 26 203 8.0 16.1 0.00 0.00 0.00 30 1017.2
20260906204516 26 225 12.9 25.7 0.00 0.00 0.00 29 1017.6
20260906203516 26 225 6.4 14.5 0.00 0.00 0.00 29 1017.8
20260906202536 26 203 12.9 24.1 0.00 0.00 0.00 29 1018.0
20260906201516 26 203 9.7 27.4 0.00 0.00 0.00 30 1018.3
20260906200538 26 225 9.7 24.1 0.00 0.00 0.00 30 1018.3
20260906195516 26 45 8.0 20.9 0.00 0.00 0.00 30 1018.8
20260906194537 26 293 6.4 14.5 0.00 0.00 0.00 29 1018.7
20260906193521 26 203 11.3 22.5 0.00 0.00 0.00 29 1018.9
20260906192516 26 270 11.3 25.7 0.00 0.00 0.00 28 1019.0
20260906191515 26 248 6.4 16.1 0.00 0.00 0.00 31 1018.9
20260906190516 26 158 1.6 8.0 0.00 0.00 0.00 31 1019.0
20260906185516 26 113 11.3 25.7 0.00 0.00 0.00 29 1019.2
20260906184516 26 248 9.7 22.5 0.00 0.00 0.00 31 1019.6
20260906183515 25 225 9.7 19.3 0.00 0.00 0.00 30 1019.6
20260906182538 25 135 9.7 25.7 0.00 0.00 0.00 30 1019.6
20260906181515 25 225 11.3 20.9 0.00 0.00 0.00 30 1019.3
20260906180538 25 203 16.1 29.0 0.00 0.00 0.00 31 1019.7
20260906175538 25 225 16.1 24.1 0.00 0.00 0.00 31 1019.9
20260906174521 25 158 6.4 20.9 0.00 0.00 0.00 30 1019.9
20260906173538 25 158 6.4 17.7 0.00 0.00 0.00 30 1020.1
20260906172518 24 23 3.2 11.3 0.00 0.00 0.00 32 1020.0
20260906171519 23 45 3.2 8.0 0.00 0.00 0.00 34 1019.9
20260906170517 23 45 8.0 14.5 0.00 0.00 0.00 35 1019.8
20260906165518 23 45 3.2 9.7 0.00 0.00 0.00 36 1019.9
20260906164517 23 45 3.2 9.7 0.00 0.00 0.00 34 1020.3
20260906163517 23 68 8.0 12.9 0.00 0.00 0.00 36 1019.9
20260906162538 22 293 4.8 8.0 0.00 0.00 0.00 37 1019.9
20260906161518 23 315 8.0 14.5 0.00 0.00 0.00 34 1020.0
20260906160517 23 338 4.8 9.7 0.00 0.00 0.00 35 1020.2
20260906155517 23 315 6.4 11.3 0.00 0.00 0.00 36 1020.3
20260906154517 23 315 4.8 9.7 0.00 0.00 0.00 37 1020.8
20260906153517 23 248 8.0 14.5 0.00 0.00 0.00 32 1020.6
20260906152520 23 315 4.8 14.5 0.00 0.00 0.00 35 1020.8
20260906151517 23 135 6.4 16.1 0.00 0.00 0.00 31 1021.4
20260906150517 23 180 8.0 14.5 0.00 0.00 0.00 31 1021.4
20260906145517 23 135 6.4 14.5 0.00 0.00 0.00 31 1021.4
20260906144537 23 135 8.0 16.1 0.00 0.00 0.00 31 1021.0
20260906143539 23 180 9.7 20.9 0.00 0.00 0.00 33 1021.0
20260906142517 22 158 6.4 12.9 0.00 0.00 0.00 33 1020.9
20260906141517 22 135 8.0 12.9 0.00 0.00 0.00 34 1020.9
20260906140518 21 135 6.4 11.3 0.00 0.00 0.00 34 1020.9
20260906135520 21 158 6.4 16.1 0.00 0.00 0.00 35 1020.4
20260906134517 20 158 1.6 6.4 0.00 0.00 0.00 36 1020.8
20260906133517 20 158 3.2 11.3 0.00 0.00 0.00 36 1020.5
20260906132518 20 225 4.8 11.3 0.00 0.00 0.00 35 1020.4
20260906131521 21 158 4.8 8.0 0.00 0.00 0.00 34 1020.8
20260906130518 20 158 6.4 14.5 0.00 0.00 0.00 34 1020.7
20260906125517 20 158 4.8 12.9 0.00 0.00 0.00 35 1020.7
20260906124519 19 203 6.4 14.5 0.00 0.00 0.00 36 1020.8
20260906123517 20 203 11.3 20.9 0.00 0.00 0.00 34 1020.7
20260906122537 21 203 3.2 6.4 0.00 0.00 0.00 33 1021.0
20260906121517 21 158 4.8 9.7 0.00 0.00 0.00 32 1021.4
20260906120517 21 158 6.4 12.9 0.00 0.00 0.00 32 1021.6
20260906115521 21 158 8.0 19.3 0.00 0.00 0.00 32 1021.3
20260906114520 21 158 4.8 12.9 0.00 0.00 0.00 33 1020.6
20260906113517 21 158 4.8 9.7 0.00 0.00 0.00 33 1020.7
20260906112517 21 180 4.8 11.3 0.00 0.00 0.00 33 1020.9
20260906111517 21 180 4.8 16.1 0.00 0.00 0.00 32 1021.2
20260906110537 21 158 6.4 9.7 0.00 0.00 0.00 32 1021.3
20260906105517 21 158 6.4 12.9 0.00 0.00 0.00 31 1021.3
20260906104517 21 158 6.4 14.5 0.00 0.00 0.00 31 1021.4
20260906103539 21 158 3.2 8.0 0.00 0.00 0.00 31 1020.9
20260906102517 21 158 4.8 9.7 0.00 0.00 0.00 31 1021.0
20260906101537 21 135 3.2 9.7 0.00 0.00 0.00 31 1021.3
20260906100517 20 158 3.2 8.0 0.00 0.00 0.00 33 1021.0
20260906095516 20 225 8.0 17.7 0.00 0.00 0.00 34 1020.6
20260906094538 20 225 8.0 19.3 0.00 0.00 0.00 34 1020.4
20260906093517 20 225 9.7 19.3 0.00 0.00 0.00 34 1020.6
20260906092516 20 225 3.2 6.4 0.00 0.00 0.00 34 1020.6
20260906091516 20 180 1.6 4.8 0.00 0.00 0.00 34 1020.0
20260906090516 20 203 12.9 17.7 0.00 0.00 0.00 32 1020.4
20260906085516 20 203 6.4 14.5 0.00 0.00 0.00 32 1020.3
20260906084519 20 135 1.6 4.8 0.00 0.00 0.00 32 1020.4
20260906083516 21 203 12.9 19.3 0.00 0.00 0.00 30 1020.4
20260906082537 21 225 8.0 19.3 0.00 0.00 0.00 29 1020.4
20260906081517 21 225 3.2 6.4 0.00 0.00 0.00 30 1020.2
20260906080517 21 225 11.3 17.7 0.00 0.00 0.00 30 1020.1
20260906075516 21 248 8.0 14.5 0.00 0.00 0.00 29 1020.4
20260906074517 22 225 9.7 17.7 0.00 0.00 0.00 29 1020.5
20260906073516 21 203 12.9 20.9 0.00 0.00 0.00 29 1020.1
20260906072517 21 203 1.6 12.9 0.00 0.00 0.00 30 1020.0
20260906071517 22 225 6.4 14.5 0.00 0.00 0.00 28 1020.1
20260906070516 22 203 6.4 16.1 0.00 0.00 0.00 27 1020.0
20260906065516 21 203 12.9 19.3 0.00 0.00 0.00 29 1020.3
20260906064518 21 203 11.3 19.3 0.00 0.00 0.00 29 1019.9
20260906063537 21 180 6.4 11.3 0.00 0.00 0.00 29 1019.8
20260906062536 21 203 12.9 19.3 0.00 0.00 0.00 28 1019.8
20260906061519 22 203 6.4 12.9 0.00 0.00 0.00 28 1019.7
20260906060516 22 203 6.4 12.9 0.00 0.00 0.00 28 1019.6
20260906055517 22 203 12.9 22.5 0.00 0.00 0.00 27 1019.7
20260906054519 22 203 1.6 6.4 0.00 0.00 0.00 27 1019.5
20260906053517 22 203 4.8 11.3 0.00 0.00 0.00 27 1019.5
20260906052516 22 180 3.2 6.4 0.00 0.00 0.00 27 1019.6
20260906051516 21 158 4.8 12.9 0.00 0.00 0.00 27 1018.9
20260906050519 21 113 4.8 9.7 0.00 0.00 0.00 28 1019.0
20260906045516 22 135 4.8 9.7 0.00 0.00 0.00 28 1019.3
20260906044537 22 113 4.8 8.0 0.00 0.00 0.00 27 1019.0
20260906043538 23 158 4.8 8.0 0.00 0.00 0.00 26 1019.2
20260906042516 23 135 4.8 8.0 0.00 0.00 0.00 25 1019.2
20260906041517 22 113 6.4 12.9 0.00 0.00 0.00 26 1019.2
20260906040517 22 135 6.4 11.3 0.00 0.00 0.00 26 1019.1
20260906035537 22 113 6.4 9.7 0.00 0.00 0.00 26 1019.0
20260906034537 22 158 3.2 8.0 0.00 0.00 0.00 26 1019.0
20260906033516 23 135 4.8 11.3 0.00 0.00 0.00 24 1019.1
20260906032517 23 180 8.0 19.3 0.00 0.00 0.00 24 1019.0
20260906031517 23 158 4.8 8.0 0.00 0.00 0.00 25 1018.1
20260906030516 23 135 4.8 11.3 0.00 0.00 0.00 24 1018.0
20260906025536 24 135 4.8 8.0 0.00 0.00 0.00 22 1018.1
20260906024517 24 180 4.8 9.7 0.00 0.00 0.00 22 1017.4
20260906023516 25 180 6.4 11.3 0.00 0.00 0.00 22 1017.4
20260906022517 25 203 8.0 16.1 0.00 0.00 0.00 22 1017.2
20260906021517 25 180 6.4 11.3 0.00 0.00 0.00 22 1016.5
20260906020516 25 180 6.4 12.9 0.00 0.00 0.00 21 1016.7
20260906015516 26 180 6.4 9.7 0.00 0.00 0.00 20 1016.7
20260906014519 26 248 11.3 24.1 0.00 0.00 0.00 19 1017.0
20260906013517 27 248 11.3 24.1 0.00 0.00 0.00 18 1017.2
20260906012516 27 270 8.0 19.3 0.00 0.00 0.00 18 1017.4
20260906011518 27 248 17.7 25.7 0.00 0.00 0.00 17 1017.7
20260906010516 28 248 14.5 27.4 0.00 0.00 0.00 17 1017.6
20260906005518 28 270 12.9 27.4 0.00 0.00 0.00 17 1017.4
20260906004516 28 248 16.1 30.6 0.00 0.00 0.00 16 1017.6
20260906003516 28 248 11.3 24.1 0.00 0.00 0.00 17 1017.5
20260906002602 29 248 14.5 20.9 0.00 0.00 0.00 16 1017.3
20260906001516 29 270 16.1 29.0 0.00 0.00 0.00 16 1017.4
20260906000516 29 248 16.1 22.5 0.00 0.00 0.00 16 1017.5
20260905235516 29 270 17.7 38.6 0.00 0.00 0.00 16 1017.3